Phoenix Deer Valley, AZ

2:19 AM MST on September 22, 2019 (GMT -0700)
Phoenix-Deer Valley Municipal

Weather History for KDVT - July, 2019

Change the Weather History Date:

Tuesday, July 23, 2019

  Actual Average Record
Temperature  
Mean Temperature 93 °F -  
Max Temperature 102 °F 101 °F 111 °F (2018)
Min Temperature 84 °F 81 °F 75 °F (2002)
Cooling Degree Days 28    
Growing Degree Days 43 (Base 50)    
Moisture  
Dew Point 59 °F    
Average Humidity 30    
Maximum Humidity 57    
Minimum Humidity 21    
Precipitation  
Precipitation 0.00 in - - ()
Sea Level Pressure  
Sea Level Pressure 29.94 in    
Wind  
Wind Speed 4 mph (ENE)    
Max Wind Speed 8 mph    
Max Gust Speed -    
Visibility 10 miles    
Events      
Averages and records for this station are not official NWS values.
T = Trace of Precipitation, MM = Missing Value Source: NWS Daily Summary

Daily Weather History Graph

Daily Weather History Graph

Search for Another Location

Airport or City:

Astronomy

Jul. 23, 2019 Rise Set
Actual Time 5:34 AM MST 7:35 PM MST
Civil Twilight 5:06 AM MST 8:03 PM MST
Nautical Twilight 4:32 AM MST 8:36 PM MST
Astronomical Twilight 3:55 AM MST 9:13 PM MST
Moon 11:42 PM MST (7/23) 11:34 AM MST (7/23)
Length of Visible Light 14h 56m
Length of Day
14h 01m
Waning Gibbous, 62% of the Moon is Illuminated
Jul 23
Waning Gibbous
Jul 24
Last Quarter
Jul 31
New
Aug 7
First Quarter
Aug 15
Full

Hourly Weather History & Observations

Time (MST) Temp. Heat Index Dew Point Humidity Pressure Visibility Wind Dir Wind Speed Gust Speed Precip Events Conditions
12:53 AM - - - N/A% 30.06 in - North - - N/A   Unknown
1:53 AM - - - N/A% 30.05 in - North - - N/A   Unknown
2:53 AM - - - N/A% 30.04 in - North - - N/A   Unknown
3:53 AM - - - N/A% 30.01 in - North - - N/A   Unknown
4:53 AM - - - N/A% 30.00 in - North - - N/A   Unknown
5:53 AM - - - N/A% 30.00 in - North - - N/A   Unknown
6:53 AM - - - N/A% 30.01 in - North - - N/A   Unknown
7:53 AM 84.9 °F 88.2 °F 68.0 °F 57% 29.96 in 10.0 mi East 3.5 mph - N/A   Unknown
8:53 AM 88.0 °F 89.6 °F 64.9 °F 46% 29.98 in 10.0 mi SE 3.5 mph - N/A   Clear
9:53 AM 90.0 °F 91.3 °F 64.0 °F 42% 29.98 in 10.0 mi Calm Calm - N/A   Clear
10:53 AM 93.0 °F 92.7 °F 60.1 °F 33% 30.03 in 10.0 mi Calm Calm - N/A   Clear
11:53 AM 97.0 °F 96.5 °F 59.0 °F 28% 30.01 in 10.0 mi Calm Calm - N/A   Clear
12:53 PM 99.0 °F 98.1 °F 57.9 °F 25% 29.98 in 10.0 mi Variable 4.6 mph - N/A   Clear
1:53 PM 102.0 °F 101.1 °F 57.0 °F 22% 29.95 in 10.0 mi Variable 6.9 mph - N/A   Clear
2:53 PM 102.0 °F 101.1 °F 57.0 °F 22% 29.92 in 10.0 mi Variable 4.6 mph - N/A   Clear
3:53 PM 102.9 °F 101.9 °F 55.9 °F 21% 29.89 in 10.0 mi West 8.1 mph - N/A   Clear
4:53 PM 102.0 °F 101.1 °F 57.0 °F 22% 29.88 in 10.0 mi WSW 5.8 mph - N/A   Clear
5:53 PM 102.9 °F 102.4 °F 57.0 °F 22% 29.87 in 10.0 mi SW 8.1 mph - N/A   Clear
6:53 PM 102.0 °F 101.1 °F 55.9 °F 22% 29.88 in 10.0 mi Variable 3.5 mph - N/A   Clear
7:53 PM 100.9 °F 100.0 °F 57.0 °F 23% 29.81 in 10.0 mi West 4.6 mph - N/A   Clear
8:53 PM 97.0 °F 96.5 °F 59.0 °F 28% 29.81 in 10.0 mi NNE 8.1 mph - N/A   Clear
9:53 PM 97.0 °F 96.9 °F 60.1 °F 29% 29.83 in 10.0 mi NE 3.5 mph - N/A   Clear
10:53 PM 95.0 °F 94.0 °F 57.9 °F 29% 29.84 in 10.0 mi ENE 6.9 mph - N/A   Clear
11:53 PM 93.9 °F 93.2 °F 59.0 °F 31% 29.84 in 10.0 mi East 5.8 mph - N/A   Clear